[[{"header":{"parameterUnit":"m.s-1","parameterCategory":1,"la1":30.2991,"la2":30.254,"lo1":-89.0895,"lo2":-89.0444,"dy":0.0017,"dx":0.0017,"nx":28,"ny":28,"refTime":"2023-10-13T21:00:00:Z","depth":0,"parameterNumber":2,"parameterNumberName":"U-component_of_WINDS"},"data":[0,0,0,0,0,0,0,0,0,0,0,0,0,0,0,0,0,0,0,0,0,0,0,0,0,0,0,0,0,0,0,0,0,0,0,0,0,0,0,0,0,0,0,0,0,0,0,0,0,0,0,0,0,0,0,0,0,0,2.2524,2.2524,0,2.2529,2.2529,2.2529,2.2504,2.2504,2.2503,2.2502,2.2508,2.2509,2.2509,0,0,0,0,0,0,0,0,0,0,0,0,0,2.2492,2.2493,2.2524,2.2524,2.2524,2.2529,2.2529,2.2529,2.2504,2.2504,2.2503,2.2502,2.2508,2.2509,2.251,0,0,0,0,0,0,0,0,0,0,0,0,0,2.2503,2.2493,2.2524,2.2512,2.2511,2.2529,2.2529,2.2529,2.2505,2.2504,2.2502,2.2501,2.2507,2.2508,2.251,2.2539,0,0,2.2514,2.2514,0,0,0,0,0,0,0,0,2.2502,2.2504,2.2514,2.2513,2.2512,2.2515,2.252,2.2533,2.2505,2.2507,2.2502,2.2501,2.2511,2.2512,2.2515,2.254,2.254,2.2514,2.2514,2.2515,2.2515,0,0,0,0,0,0,0,2.2502,2.2504,2.2526,2.2514,2.2513,2.2507,2.2507,2.2523,2.2515,2.2507,2.2505,2.2506,2.251,2.2514,2.2515,2.254,2.2514,2.2515,2.2515,2.2516,2.259,2.2592,0,0,0,0,0,0,2.2502,2.2503,2.2526,2.2526,2.2504,2.2508,2.2509,2.2515,2.2515,2.2514,2.2507,2.2505,2.2513,2.2514,2.2515,2.2551,2.2515,2.2516,2.2517,2.2589,2.2591,2.2592,0,0,0,0,0,0,2.2502,2.2505,2.2525,2.2514,2.2516,2.251,2.2517,2.2516,2.252,2.2515,2.2514,2.2512,2.2512,2.2514,2.2534,2.2551,2.2517,2.2518,2.2588,2.259,2.2591,2.2622,0,0,0,0,0,0,2.2501,2.2504,2.2515,2.2515,2.2517,2.2544,2.2518,2.2517,2.2522,2.2519,2.252,2.2519,2.2511,2.2532,2.2535,2.2552,2.2519,2.2586,2.2589,2.2591,2.2619,2.2624,2.2629,0,0,0,0,0,2.25,2.2523,2.2516,2.2519,2.253,2.2544,2.2546,2.2537,2.2523,2.2534,2.2532,2.2519,2.2549,2.2535,2.2538,2.2555,2.2585,2.2588,2.2591,2.2617,2.2623,2.2629,0,0,0,0,0,0,2.2526,2.2523,2.2515,2.2538,2.2542,2.254,2.2554,2.2544,2.2551,2.2548,2.2537,2.2537,2.2559,2.2559,2.2544,2.2584,2.2565,2.2568,2.2583,2.2589,2.2594,2.2594,2.252,0,0,0,0,0,2.2534,2.2546,2.2543,2.2564,2.2566,2.256,2.2566,2.2559,2.2562,2.2563,2.2562,2.2565,2.2576,2.2583,2.2592,2.2619,2.2619,2.2633,2.2638,2.2642,2.2645,2.266,2.2666,2.2601,2.2601,2.2601,0,0,2.2552,2.2552,2.2559,2.2569,2.2571,2.2584,2.2561,2.2575,2.2585,2.2565,2.2584,2.2584,2.2587,2.2611,2.2622,2.2612,2.2663,2.2645,2.2648,2.2649,2.2664,2.267,2.2675,2.2603,2.2603,2.2602,0,0,2.259,2.2591,2.2609,2.2612,2.2615,2.2611,2.2616,2.2616,2.2615,2.2634,2.262,2.2632,2.2649,2.2653,2.2657,2.2699,2.2687,2.2702,2.2727,2.2742,2.2747,2.2752,2.2767,2.2773,2.2705,2.2705,2.2705,0,2.2611,2.2629,2.262,2.2635,2.264,2.2624,2.2643,2.2646,2.2652,2.2656,2.2645,2.2668,2.2669,2.2695,2.2705,2.2709,2.2714,2.2701,2.2747,2.2752,2.2756,2.277,2.2776,2.2707,2.2707,2.2707,2.2706,0,2.2656,2.2669,2.2683,2.269,2.2697,2.2714,2.2708,2.2716,2.2709,2.2706,2.2727,2.2728,2.2737,2.2743,2.2736,2.2768,2.2762,2.2749,2.2729,2.2764,2.2777,2.2783,2.271,2.2709,2.2708,2.2708,0,0,2.2709,2.2712,2.2717,2.2721,2.2724,2.2734,2.2751,2.2761,2.2768,2.2774,2.2788,2.2804,2.2793,2.2798,2.2791,2.2805,2.2839,2.2791,2.2791,2.28,2.2875,2.2884,2.289,2.2832,2.2833,2.2833,2.2875,0,2.2746,2.2775,2.2768,2.2797,2.2809,2.2795,2.281,2.2814,2.2813,2.2823,2.2821,2.2833,2.2818,2.2821,2.2833,2.2832,2.2854,2.2829,2.2845,2.2846,2.2844,2.2897,2.2907,2.2946,2.288,2.2881,2.2881,0,2.2794,2.2802,2.2832,2.2835,2.284,2.2853,2.2862,2.2872,2.2877,2.2875,2.2882,2.2873,2.289,2.2871,2.2895,2.2878,2.2885,2.2885,2.2887,2.2887,2.2865,2.29,2.2958,2.2963,2.2889,2.2889,2.2888,0,2.283,2.2848,2.2869,2.2872,2.2876,2.2886,2.2888,2.2892,2.2899,2.2907,2.2911,2.2921,2.2927,2.2935,2.293,2.2916,2.2955,2.2935,2.2954,2.2955,2.2963,2.2962,2.3022,2.2967,2.2967,2.2967,2.2967,0,2.2872,2.2892,2.2885,2.2898,2.2919,2.2912,2.2933,2.2933,2.2937,2.295,2.2939,2.2951,2.2943,2.2955,2.2951,2.2972,2.2975,2.2974,2.2973,2.2975,2.2975,2.2978,2.2976,2.2969,2.2968,2.2968,2.2968,0,2.2916,2.2912,2.2934,2.2936,2.2937,2.2953,2.2955,2.2967,2.2966,2.2982,2.2986,2.2983,2.2997,2.2992,2.3007,2.3004,2.3031,2.3027,2.303,2.3028,2.3048,2.3046,2.3113,2.3121,2.3061,2.3061,2.3062,0,2.2943,2.2958,2.2962,2.297,2.2973,2.2986,2.2993,2.2987,2.2995,2.3002,2.3014,2.3027,2.3036,2.3059,2.3059,2.307,2.3066,2.3088,2.3067,2.3069,2.3066,2.3065,2.3067,2.3092,2.3093,2.3093,2.3094,0,2.2992,2.299,2.3001,2.3012,2.3021,2.3029,2.3036,2.3043,2.3038,2.3047,2.3062,2.3069,2.3085,2.3098,2.3109,2.3111,2.3102,2.3101,2.3106,2.3108,2.3109,2.3109,2.3041,2.3099,2.3098,2.3098,2.3098,2.3097,2.3028,2.3041,2.3046,2.3059,2.3064,2.3071,2.3083,2.3084,2.3095,2.3108,2.3103,2.312,2.3126,2.3139,2.3143,2.3156,2.3148,2.3155,2.3157,2.3159,2.3161,2.3108,2.3158,2.3158,2.3158,2.3158,2.3158,0,2.3077,2.308,2.3092,2.3103,2.3113,2.3104,2.3112,2.3121,2.3136,2.3142,2.3153,2.317,2.3183,2.3184,2.3196,2.3207,2.3203,2.321,2.3209,2.321,2.3168,2.3163,2.3213,2.3213,2.3213,2.3213,2.3213,2.3213,2.3103,2.3124,2.3123,2.3147,2.315,2.3167,2.3172,2.3179,2.3184,2.3204,2.3215,2.3215,2.322,2.3233,2.3245,2.3245,2.325,2.3259,2.3258,2.3219,2.3213,2.3208,2.3202,2.3261,2.3261,2.3299,2.3299,2.3299]},{"header":{"parameterUnit":"m.s-1","parameterCategory":1,"la1":30.2991,"la2":30.254,"lo1":-89.0895,"lo2":-89.0444,"dy":0.0017,"dx":0.0017,"nx":28,"ny":28,"refTime":"2023-10-13T21:00:00:Z","depth":0,"parameterNumber":3,"parameterNumberName":"V-component_of_WINDS"},"data":[0,0,0,0,0,0,0,0,0,0,0,0,0,0,0,0,0,0,0,0,0,0,0,0,0,0,0,0,0,0,0,0,0,0,0,0,0,0,0,0,0,0,0,0,0,0,0,0,0,0,0,0,0,0,0,0,0,0,-6.1581,-6.1582,0,-6.1678,-6.1679,-6.168,-6.1661,-6.1659,-6.1657,-6.1656,-6.1748,-6.1752,-6.1757,0,0,0,0,0,0,0,0,0,0,0,0,0,-6.1376,-6.138,-6.1581,-6.1582,-6.1583,-6.1678,-6.1679,-6.168,-6.1661,-6.1659,-6.1657,-6.1655,-6.1747,-6.1752,-6.1757,0,0,0,0,0,0,0,0,0,0,0,0,0,-6.1468,-6.1381,-6.1581,-6.1585,-6.1587,-6.1677,-6.1679,-6.168,-6.1662,-6.1659,-6.1656,-6.1654,-6.1746,-6.1752,-6.1758,-6.1848,0,0,-6.1776,-6.1779,0,0,0,0,0,0,0,0,-6.1463,-6.1475,-6.1583,-6.1585,-6.1587,-6.1655,-6.1641,-6.1736,-6.1662,-6.1633,-6.1656,-6.1653,-6.1719,-6.1727,-6.1751,-6.1852,-6.1856,-6.1777,-6.1781,-6.1783,-6.1785,0,0,0,0,0,0,0,-6.1456,-6.1471,-6.1619,-6.1585,-6.1587,-6.1581,-6.1592,-6.1659,-6.1689,-6.1635,-6.1634,-6.1646,-6.1719,-6.1745,-6.1753,-6.1857,-6.1777,-6.1782,-6.1786,-6.1788,-6.2039,-6.2042,0,0,0,0,0,0,-6.1449,-6.1466,-6.1616,-6.1622,-6.1517,-6.1587,-6.1599,-6.1635,-6.1688,-6.1694,-6.1648,-6.1645,-6.1736,-6.1746,-6.1756,-6.1867,-6.1783,-6.1789,-6.1792,-6.2036,-6.204,-6.2043,0,0,0,0,0,0,-6.1445,-6.1463,-6.1612,-6.1544,-6.1562,-6.1594,-6.1635,-6.1639,-6.1664,-6.1698,-6.1703,-6.1669,-6.1734,-6.1747,-6.1826,-6.1869,-6.1792,-6.1797,-6.2033,-6.2038,-6.2042,-6.2087,0,0,0,0,0,0,-6.1439,-6.1461,-6.1496,-6.1545,-6.1566,-6.1682,-6.1638,-6.1642,-6.1676,-6.1672,-6.1719,-6.1724,-6.1733,-6.1817,-6.1832,-6.1877,-6.1802,-6.2029,-6.2035,-6.204,-6.2082,-6.2093,-6.2102,0,0,0,0,0,-6.1432,-6.1503,-6.1498,-6.1516,-6.1611,-6.1684,-6.1696,-6.1707,-6.1679,-6.1715,-6.1737,-6.1723,-6.1862,-6.1825,-6.1842,-6.1889,-6.2026,-6.2033,-6.204,-6.2078,-6.2091,-6.2102,0,0,0,0,0,0,-6.1456,-6.151,-6.1505,-6.1595,-6.1636,-6.1681,-6.1726,-6.172,-6.1767,-6.1762,-6.1771,-6.1781,-6.1862,-6.1883,-6.1841,-6.198,-6.194,-6.1951,-6.1963,-6.1976,-6.1986,-6.1979,-6.1807,0,0,0,0,0,-6.1473,-6.153,-6.1572,-6.1647,-6.1669,-6.1694,-6.1726,-6.1731,-6.1773,-6.1789,-6.1817,-6.1856,-6.1909,-6.1944,-6.1994,-6.2085,-6.2096,-6.2126,-6.2136,-6.2144,-6.2153,-6.2204,-6.2219,-6.2065,-6.2065,-6.2065,0,0,-6.1506,-6.1543,-6.1577,-6.1654,-6.1686,-6.1743,-6.1708,-6.177,-6.1813,-6.1797,-6.1875,-6.1897,-6.1941,-6.2027,-6.2066,-6.2047,-6.2198,-6.2153,-6.2159,-6.2163,-6.2213,-6.2227,-6.224,-6.207,-6.2069,-6.2068,0,0,-6.1597,-6.163,-6.1698,-6.1732,-6.1782,-6.1799,-6.1815,-6.1863,-6.1878,-6.1956,-6.1947,-6.1997,-6.2087,-6.212,-6.2149,-6.2256,-6.2245,-6.2272,-6.2324,-6.2374,-6.2386,-6.2397,-6.2436,-6.245,-6.228,-6.228,-6.228,0,-6.1632,-6.172,-6.1732,-6.1797,-6.1831,-6.1823,-6.1892,-6.1923,-6.1986,-6.201,-6.1988,-6.2104,-6.2133,-6.2227,-6.2254,-6.2277,-6.2296,-6.2266,-6.2384,-6.2394,-6.2405,-6.2442,-6.2457,-6.2283,-6.2283,-6.2283,-6.2282,0,-6.1761,-6.1823,-6.1871,-6.1936,-6.1975,-6.2041,-6.2063,-6.2101,-6.2103,-6.2122,-6.2202,-6.2237,-6.2296,-6.2319,-6.232,-6.2414,-6.2401,-6.2382,-6.2342,-6.2422,-6.2458,-6.2472,-6.2288,-6.2287,-6.2286,-6.2285,0,0,-6.1868,-6.1942,-6.196,-6.199,-6.2047,-6.2094,-6.2159,-6.2219,-6.2253,-6.2297,-6.2352,-6.2431,-6.2414,-6.2446,-6.2451,-6.2495,-6.258,-6.2471,-6.2472,-6.2491,-6.2687,-6.2702,-6.2719,-6.2573,-6.2576,-6.2578,-6.2684,0,-6.1966,-6.2084,-6.2099,-6.2203,-6.2261,-6.2255,-6.2313,-6.2353,-6.2373,-6.2423,-6.2444,-6.2501,-6.2474,-6.2494,-6.2537,-6.256,-6.262,-6.2553,-6.2624,-6.2627,-6.2614,-6.2737,-6.2753,-6.2851,-6.2698,-6.27,-6.2702,0,-6.2094,-6.2146,-6.2258,-6.2309,-6.2333,-6.2385,-6.2442,-6.2491,-6.2537,-6.2548,-6.2587,-6.2587,-6.2654,-6.2612,-6.2705,-6.2659,-6.2689,-6.2705,-6.2709,-6.2716,-6.2669,-6.2748,-6.2882,-6.2897,-6.2724,-6.2722,-6.272,0,-6.2163,-6.226,-6.2341,-6.2366,-6.2428,-6.2464,-6.2491,-6.2535,-6.2571,-6.262,-6.2644,-6.27,-6.273,-6.2773,-6.2788,-6.2756,-6.2881,-6.2839,-6.2892,-6.2891,-6.2918,-6.2916,-6.3059,-6.2936,-6.2936,-6.2936,-6.2935,0,-6.227,-6.2339,-6.2373,-6.2422,-6.2499,-6.2515,-6.259,-6.2615,-6.2654,-6.2707,-6.2705,-6.2755,-6.2772,-6.2824,-6.2836,-6.2912,-6.2925,-6.2936,-6.2938,-6.2936,-6.2935,-6.2956,-6.295,-6.294,-6.2939,-6.2938,-6.2937,0,-6.236,-6.2386,-6.2473,-6.2525,-6.254,-6.2594,-6.2638,-6.2686,-6.2706,-6.2774,-6.279,-6.2822,-6.2883,-6.2903,-6.2976,-6.2984,-6.3074,-6.3069,-6.3059,-6.3059,-6.3111,-6.3106,-6.3273,-6.3296,-6.3157,-6.3159,-6.316,0,-6.2427,-6.248,-6.254,-6.2577,-6.2606,-6.2665,-6.2703,-6.2721,-6.276,-6.2818,-6.2858,-6.292,-6.2971,-6.307,-6.3098,-6.3155,-6.3152,-6.3207,-6.316,-6.3158,-6.3154,-6.3151,-6.3157,-6.3215,-6.3217,-6.3218,-6.3219,0,-6.2544,-6.2555,-6.261,-6.2672,-6.2718,-6.2766,-6.2813,-6.2843,-6.2867,-6.2911,-6.2976,-6.3016,-6.3093,-6.3155,-6.3213,-6.3239,-6.3233,-6.3234,-6.3249,-6.3248,-6.324,-6.3246,-6.3084,-6.323,-6.3228,-6.3228,-6.3227,-6.3227,-6.2625,-6.2673,-6.2723,-6.2786,-6.2824,-6.2868,-6.2916,-6.2944,-6.3,-6.3066,-6.3072,-6.3143,-6.3188,-6.3267,-6.3296,-6.3351,-6.3335,-6.3356,-6.3362,-6.3367,-6.3372,-6.3232,-6.3361,-6.3361,-6.336,-6.336,-6.336,0,-6.2742,-6.2775,-6.2833,-6.2901,-6.295,-6.2944,-6.2995,-6.3037,-6.31,-6.3144,-6.3196,-6.3271,-6.3331,-6.3366,-6.3426,-6.3463,-6.3462,-6.3478,-6.3476,-6.3482,-6.3382,-6.3364,-6.3478,-6.3478,-6.3478,-6.3478,-6.3478,-6.3478,-6.2809,-6.2892,-6.2909,-6.3009,-6.3041,-6.3113,-6.3143,-6.3184,-6.322,-6.3305,-6.3357,-6.338,-6.342,-6.3484,-6.3539,-6.3548,-6.357,-6.3588,-6.3595,-6.3501,-6.3489,-6.3477,-6.346,-6.3593,-6.3593,-6.3691,-6.3692,-6.3692]}]]